Flag for U.S.A. Weather past 2 weeks in Lawrence, Kansas, U.S.A.

Now
32 °F

Clear.


Feels Like: 24 °F
Forecast: 32 / 47 °F
Wind: 9 mph from North

Location: Lawrence Municipal Airport

Current Time: Mar 27, 2015 at 7:31:28 AM

Latest Report: Mar 27, 2015 at 6:52 AM


Visibility: 9 mi

Pressure: 30.24 "Hg

Humidity: 88%

Dew point: 29 °F

Location of LawrenceLocation

Historic Weather in Lawrence — Graph

°F

Lawrence temperature yesterday

Maximum temperature yesterday: 52 °F (at 3:52 PM)
Minimum temperature yesterday: 29 °F (at 6:52 AM)
Average temperature yesterday: 42 °F

Past Weeks' High & Low Weather Summary

 TemperatureHumidityPressure
High84 °F (Mar 16, 4:52 PM)100% (Mar 20, 4:52 AM)30.39 "Hg (Mar 20, 4:52 AM)
Low24 °F (Mar 15, 6:52 AM)17% (Mar 15, 3:52 PM)29.78 "Hg (Mar 24, 4:52 PM)
Average50 °F63%30.12 "Hg
* Reported Mar 12 5:52 AM — Mar 27 5:52 AM, Lawrence, Weather by CustomWeather, © 2015

Note: Actual official high and low records may vary slightly from our data, if they occured in-between our weather recording intervals... More about our weather records

Advertising

Lawrence weather history for previous 24 hours

 ConditionsComfort  
Time TempWeatherWind HumidityBarometerVisibility
5:52 AM
Fri, Mar 27
34 °FOvercast.9 mph88%30.22 "Hg9 mi
4:52 AM34 °FPassing clouds.7 mph88%30.20 "Hg10 mi
3:52 AM36 °FMostly cloudy.7 mph89%30.18 "Hg10 mi
2:52 AM37 °FOvercast.8 mph86%30.19 "Hg10 mi
1:52 AM37 °FMostly cloudy.7 mph93%30.18 "Hg8 mi
12:52 AM37 °FLight rain. Overcast.6 mph89%30.18 "Hg7 mi
11:52 PM
Thu, Mar 26
38 °FLight rain. Mostly cloudy.12 mph90%30.17 "Hg8 mi
10:59 PM39 °FLight rain. Overcast.14 mph86%30.15 "Hg8 mi
9:52 PM45 °FMostly cloudy.12 mph56%30.11 "Hg10 mi
8:52 PM48 °FMostly cloudy.9 mph48%30.10 "Hg10 mi
7:52 PM47 °FOvercast.5 mph56%30.09 "Hg10 mi
6:52 PM50 °FOvercast.No wind41%30.07 "Hg10 mi
5:52 PM50 °FPartly sunny.7 mph41%30.09 "Hg10 mi
4:52 PM52 °FSunny.5 mph38%30.11 "Hg10 mi
3:52 PM52 °FSunny.9 mph40%30.13 "Hg10 mi
2:52 PM51 °FSunny.8 mph39%30.15 "Hg10 mi
1:52 PM49 °FSunny.8 mph43%30.19 "Hg10 mi
12:52 PM48 °FPassing clouds.15 mph46%30.20 "Hg10 mi
11:52 AM45 °FPassing clouds.12 mph53%30.23 "Hg10 mi
10:52 AM44 °FSunny.9 mph55%30.24 "Hg10 mi
9:52 AM40 °FSunny.8 mph65%30.25 "Hg10 mi
8:52 AM35 °FSunny.9 mph82%30.26 "Hg8 mi
7:52 AM29 °FClear.6 mph89%30.25 "Hg8 mi
Weather by CustomWeather, © 2015

See weather overviewHow to use our weather pages